Wind_Speed
43 42 41 39 37 36 35 35 35 36 36 36 37 36 36 36 36 36 36 35 34 33 32 31 31 30 31 31 30 30 29 29 30 32 35 38 41 43 45 47 46 45 44 43 41 40 39 37 37 37 37 36 35 33 32 31 30 27 25 24 22 20 18 17 15 12 11 10 9 11 13 14 15 15 14 11 15 20 18 19 22 22 24 27 27 27 30 34
45 45 44 42 41 39 38 37 36 37 37 37 38 37 37 37 37 37 37 37 36 35 34 33 33 32 32 33 33 32 32 31 31 32 34 36 39 42 45 46 47 47 46 45 43 42 41 40 39 39 38 38 37 36 34 34 32 29 28 27 24 22 20 19 17 14 15 12 6 10 16 14 13 14 16 17 19 19 18 21 22 22 24 25 26 26 29 33
48 47 47 45 44 42 41 40 38 38 38 38 38 39 38 38 38 38 38 38 38 37 36 36 35 35 35 35 35 35 34 34 32 32 34 35 36 41 44 46 47 48 48 47 45 44 43 41 40 40 40 40 39 38 37 36 34 32 30 29 27 25 23 20 18 16 17 13 7 11 18 16 12 10 14 20 21 20 22 23 21 22 23 23 25 26 29 32
49 49 49 48 47 46 44 43 42 40 40 40 40 40 40 40 39 39 39 39 39 39 39 38 37 37 37 37 37 37 37 36 34 34 35 35 35 38 42 45 47 48 48 48 48 46 45 43 42 40 40 40 41 40 39 38 36 34 33 32 29 27 24 20 19 18 17 14 13 15 18 18 14 12 15 18 17 19 22 21 20 21 21 22 24 25 28 30
51 50 50 50 49 49 47 46 45 44 42 42 41 41 42 41 41 41 40 40 40 41 40 40 39 39 39 39 39 39 40 39 36 36 37 36 36 36 40 44 46 48 48 49 49 48 47 45 44 42 42 41 42 41 40 39 38 37 34 33 32 29 26 23 20 20 18 14 14 15 17 17 15 15 17 15 13 17 21 20 20 20 21 22 23 24 26 29
52 51 51 51 51 51 50 49 48 47 46 44 44 43 43 43 43 42 42 42 42 42 42 42 41 41 41 40 41 41 43 42 39 40 39 37 37 37 38 42 45 47 48 49 49 50 49 48 46 45 44 43 43 42 41 41 40 38 36 35 33 31 28 26 22 19 18 14 14 17 17 16 15 17 18 14 13 15 18 20 20 19 21 21 20 22 25 28
53 53 52 52 52 52 52 52 51 50 49 48 46 46 45 45 45 44 44 44 44 44 43 44 43 43 43 42 43 43 45 46 43 42 41 39 40 39 38 40 43 46 47 48 49 50 50 50 49 48 46 45 45 43 43 42 41 40 38 36 35 33 30 28 25 21 20 18 16 18 18 19 20 21 20 15 13 13 15 18 19 19 21 19 18 22 24 27
56 55 55 54 53 53 53 53 53 53 51 51 50 48 48 47 47 46 46 46 46 46 45 46 45 45 45 44 45 44 47 48 45 44 44 42 42 41 40 40 42 45 46 47 48 50 50 51 50 50 49 47 46 45 44 43 43 42 40 38 36 34 32 30 27 25 24 22 19 20 20 25 27 25 24 22 19 15 15 18 19 20 19 16 18 22 23 26
58 57 57 56 56 55 55 55 54 54 54 53 52 51 50 49 49 48 48 48 47 47 47 47 47 47 47 46 46 47 49 49 47 48 47 45 44 44 42 41 42 44 45 46 47 49 50 51 51 51 50 49 47 46 45 45 45 44 41 39 38 36 34 32 30 29 27 24 24 24 24 29 31 28 28 26 21 16 15 17 17 18 16 14 18 21 22 25
60 59 59 59 58 58 57 57 56 56 56 55 55 54 53 52 51 50 50 50 49 49 49 49 49 49 49 48 48 49 50 49 49 51 50 48 47 46 45 43 43 44 45 46 46 47 49 51 51 51 50 50 50 48 48 47 48 46 43 42 41 39 38 35 32 32 31 27 28 30 30 31 30 29 30 29 24 20 20 18 15 15 15 15 18 20 21 24
64 63 62 61 61 61 60 60 59 58 58 58 57 57 56 55 54 53 52 52 51 51 51 51 50 50 51 50 51 52 51 49 51 53 53 51 50 49 48 46 45 44 45 46 46 46 48 49 50 51 51 51 52 51 50 50 49 47 46 47 46 43 41 39 37 35 34 30 29 32 32 30 27 28 31 30 27 24 22 20 17 15 15 17 18 18 21 24
67 66 65 64 64 63 63 63 62 61 61 60 60 59 59 58 57 56 55 54 53 53 53 52 52 52 52 52 53 53 52 52 53 54 55 55 53 52 51 49 48 46 46 46 47 46 46 48 49 51 52 52 53 53 52 52 50 49 49 49 48 46 45 42 40 38 36 33 32 32 31 29 26 26 29 28 25 23 23 22 20 17 16 19 18 16 20 22
67 67 67 67 67 66 66 65 65 64 64 63 62 62 61 60 60 59 58 57 56 55 54 54 54 54 54 54 54 55 54 54 54 54 55 56 56 55 54 53 51 49 48 47 47 47 46 47 49 51 51 52 54 54 54 55 53 52 52 51 49 49 49 46 44 42 39 37 38 36 33 31 25 23 29 29 27 26 25 24 22 19 18 18 16 15 18 18
65 66 67 68 68 68 68 68 68 67 67 66 66 65 64 63 62 62 61 60 59 58 57 56 56 55 55 55 56 56 56 56 56 56 56 57 58 58 57 56 54 52 51 49 49 48 47 47 48 50 51 53 54 54 55 56 55 55 54 53 52 52 52 50 47 46 44 42 42 40 35 32 29 26 29 29 29 29 27 26 24 21 18 16 15 15 16 16
63 64 65 67 68 69 70 70 70 70 70 70 69 68 67 67 66 65 64 63 62 61 60 59 58 57 57 57 58 58 58 58 58 57 57 58 59 59 59 58 57 56 54 52 51 50 49 48 48 49 50 52 53 53 55 56 56 56 55 55 54 54 53 51 49 48 47 45 44 44 40 35 33 32 28 24 25 28 29 27 25 22 18 16 15 14 15 15
62 63 64 65 66 68 70 71 71 71 72 72 72 71 71 70 69 68 67 66 65 64 63 62 61 60 59 59 59 59 60 59 59 59 59 59 59 60 61 61 61 59 57 56 54 53 52 50 49 48 49 50 51 52 54 56 57 57 57 57 56 55 54 52 51 50 49 48 47 47 45 39 34 32 27 23 23 26 29 27 25 23 19 17 16 15 15 15
64 64 64 64 65 67 68 70 72 73 73 73 73 74 73 73 72 71 70 69 68 67 66 65 64 63 62 61 61 61 61 61 61 61 61 61 61 61 62 63 62 61 60 59 57 56 54 53 51 50 48 49 51 51 52 55 57 58 59 59 57 56 55 53 53 52 50 49 50 51 48 44 41 37 32 28 26 26 27 27 26 25 22 20 19 17 17 15
65 66 65 65 66 66 67 69 71 73 74 74 74 74 75 75 75 74 74 73 71 70 69 68 67 66 65 64 63 63 63 63 63 63 62 62 62 63 63 63 63 63 63 62 61 59 57 55 54 52 49 49 50 50 51 56 59 59 60 60 59 58 56 55 54 54 52 50 53 54 50 48 48 46 42 37 32 29 27 27 28 26 23 21 20 18 17 17
67 68 68 67 67 67 68 69 70 72 73 75 75 75 75 76 76 77 77 76 75 74 73 71 70 69 68 68 67 65 65 64 64 64 64 64 64 64 64 64 64 65 65 64 64 62 60 58 56 53 52 51 52 52 54 59 59 58 60 60 59 59 57 56 55 53 53 54 55 55 52 49 49 49 47 44 39 35 32 31 31 28 24 23 22 20 20 21
67 69 70 70 69 69 69 70 70 71 72 74 75 76 76 76 76 77 78 78 78 77 76 75 73 72 71 71 70 68 68 67 66 66 66 66 66 66 66 66 65 65 66 66 67 65 63 61 58 56 56 56 55 55 56 58 58 57 58 59 59 60 58 58 57 55 55 56 56 55 53 50 51 50 49 46 43 40 36 34 34 31 27 25 25 24 22 22
66 69 71 72 72 71 71 71 71 72 73 73 74 75 76 76 77 78 78 79 79 79 79 78 77 76 75 74 73 72 71 70 69 69 69 68 68 68 67 67 66 66 67 67 68 67 65 62 61 61 61 60 58 57 57 57 57 56 56 58 59 59 58 59 58 57 56 57 57 56 54 52 52 51 49 46 43 42 38 35 34 33 31 29 28 27 24 22
62 66 69 72 73 73 73 72 72 73 73 74 74 75 76 76 77 78 79 79 80 80 80 80 80 79 79 78 77 75 74 73 72 72 71 70 70 69 69 68 68 68 68 68 69 68 66 65 65 65 65 63 61 59 59 58 57 56 55 56 58 58 58 59 60 59 58 58 58 57 57 55 52 51 50 48 44 43 41 38 36 35 34 33 32 31 27 23
54 59 63 67 71 74 74 74 74 74 74 74 75 75 76 76 77 78 79 80 80 80 81 81 81 82 82 82 81 79 78 76 75 75 74 73 72 70 70 70 70 70 70 70 70 69 68 68 69 70 68 66 64 62 61 60 58 56 54 55 56 57 58 59 61 61 60 60 59 59 58 56 53 52 53 50 47 45 43 41 40 38 37 35 35 34 30 26
47 51 55 60 65 70 73 74 74 74 74 74 75 76 76 77 77 78 79 80 81 81 81 81 81 82 83 84 83 83 82 80 78 78 77 76 74 73 73 73 72 72 72 71 71 70 69 71 72 72 71 69 67 65 63 62 60 58 56 55 55 57 59 60 62 62 60 60 59 59 58 57 54 54 54 52 49 47 45 44 43 41 39 38 37 35 32 29
42 45 47 51 56 61 67 71 73 74 75 75 76 76 76 77 78 78 78 79 80 81 81 81 81 82 83 84 84 85 85 83 82 82 81 79 77 76 76 75 74 74 73 73 73 71 71 72 73 74 73 72 70 68 66 64 63 61 58 57 57 58 60 61 61 60 58 57 57 56 56 56 55 54 54 53 50 49 48 46 44 44 42 41 39 37 34 30
38 41 43 45 48 52 58 64 69 72 75 76 76 76 76 77 78 78 79 80 80 80 81 81 81 83 83 83 84 85 85 85 85 85 84 83 81 80 79 78 77 76 75 75 74 73 73 73 74 75 75 74 72 71 69 68 66 63 61 59 59 59 61 61 60 58 56 56 56 54 52 54 54 53 52 51 50 50 49 47 44 44 44 42 40 39 36 30
35 37 39 41 43 46 50 55 60 66 72 75 76 77 77 77 77 78 79 80 80 79 80 80 81 83 83 83 85 85 85 86 86 86 87 86 85 84 83 81 80 79 78 76 75 74 74 75 75 76 77 76 75 73 72 71 68 66 65 63 61 60 62 62 60 57 56 56 55 51 49 49 49 49 49 47 47 47 47 46 44 43 44 42 41 41 38 32
33 34 36 38 40 42 44 49 53 58 64 70 74 77 78 77 78 78 79 80 80 78 79 80 82 83 83 84 85 85 85 86 86 86 88 89 88 88 87 85 84 82 80 78 76 76 75 76 77 78 78 77 76 75 75 74 71 70 69 67 64 63 65 64 61 58 56 56 54 50 49 46 44 46 47 44 42 43 44 45 44 43 43 41 40 40 38 34
33 33 34 35 37 38 40 43 47 51 56 62 68 73 77 79 79 80 80 81 80 78 78 81 82 82 82 83 85 86 86 86 85 85 89 90 89 90 90 89 88 86 84 81 79 78 78 78 78 78 77 76 77 77 77 76 74 73 73 70 67 67 67 65 61 57 55 53 50 49 48 45 43 45 45 42 40 42 44 44 44 44 44 41 39 39 37 35
35 34 34 34 36 37 37 39 42 45 49 54 60 65 70 75 78 81 83 84 82 80 79 81 80 80 82 83 84 85 85 86 85 86 89 90 89 91 92 91 91 90 88 84 82 81 80 80 79 78 78 78 79 79 78 78 77 76 75 73 72 70 68 67 63 59 56 50 47 47 45 43 44 44 42 41 42 43 43 44 44 45 44 42 41 40 39 39
37 36 36 36 36 36 37 38 40 41 44 47 52 56 61 67 72 77 80 82 83 83 82 81 80 82 84 85 85 84 83 84 85 86 89 89 89 91 92 93 94 93 91 88 86 85 83 82 80 80 80 81 81 80 80 79 78 78 78 77 76 73 71 70 66 62 57 51 49 49 47 44 44 44 41 40 42 43 43 44 45 45 45 43 43 43 42 42
37 37 37 37 37 37 38 39 39 40 41 43 45 49 53 58 63 68 72 75 77 78 80 82 84 87 89 89 87 83 82 83 84 85 88 88 89 92 94 95 95 94 93 92 90 88 86 83 81 80 80 82 82 82 82 80 81 82 81 79 77 75 73 71 68 65 59 53 52 52 50 47 46 46 44 43 43 42 42 44 44 44 45 45 44 45 44 45
36 36 37 38 38 38 39 39 40 41 42 42 43 45 47 50 54 58 61 63 66 70 75 80 84 87 89 91 89 85 84 86 86 85 86 87 90 94 96 97 96 93 93 94 93 91 89 86 84 83 82 83 84 84 83 82 84 85 82 80 79 78 77 74 70 67 63 58 56 56 53 49 48 48 47 45 45 43 42 43 43 44 46 45 45 46 46 46
34 34 35 36 37 38 39 40 41 41 42 43 44 44 45 45 47 48 49 50 56 64 70 74 78 81 84 87 88 86 87 90 88 86 86 88 91 96 98 98 95 93 94 95 95 94 93 91 89 88 86 86 86 86 85 85 85 85 83 82 83 83 81 77 73 70 67 62 59 59 57 51 50 50 48 46 46 44 43 43 43 43 44 45 45 46 47 48
32 32 32 33 35 37 38 40 41 42 43 43 44 44 44 44 44 45 44 45 51 58 61 65 68 71 75 78 80 83 86 89 87 87 88 90 94 97 98 97 94 93 93 94 95 95 95 95 94 92 89 87 86 87 87 86 86 85 85 85 86 85 83 80 76 73 72 67 63 61 59 54 53 53 51 48 46 45 44 43 43 43 43 43 44 46 49 50
29 29 30 30 31 33 35 38 40 41 42 43 44 44 44 43 44 45 46 45 49 51 52 55 58 61 66 68 70 74 79 82 82 85 90 94 96 98 97 94 92 92 94 95 96 97 96 97 98 96 94 91 89 89 88 86 86 86 87 87 87 86 85 82 78 77 75 71 66 63 61 58 56 55 52 50 48 47 46 44 43 43 42 41 41 45 50 52
27 27 28 28 28 29 31 34 36 38 40 41 43 43 43 43 45 47 46 45 47 48 48 49 50 53 57 60 62 66 70 73 74 80 88 94 97 98 95 92 90 91 94 96 97 98 96 98 100 100 98 97 94 92 90 87 86 87 88 88 87 87 86 84 81 79 78 74 70 67 64 62 59 56 54 53 51 49 47 46 46 45 42 39 40 45 49 52
27 26 26 26 26 27 28 29 31 33 35 37 39 40 42 44 46 47 46 45 47 49 47 46 47 50 54 55 58 61 64 66 68 74 82 88 93 94 92 90 90 91 95 98 99 99 98 98 101 102 101 100 97 94 92 89 87 88 90 89 89 89 88 86 84 81 80 78 74 70 67 65 62 59 56 55 54 51 50 48 47 46 44 40 40 43 48 51
28 25 25 25 24 25 25 26 27 29 30 31 34 36 39 43 44 45 45 46 49 49 48 47 49 51 52 51 54 57 59 62 64 69 75 79 84 87 89 90 91 92 96 99 101 102 101 100 101 103 103 102 100 98 96 95 92 92 93 91 90 90 90 87 85 83 82 81 78 73 70 68 65 62 59 57 57 55 53 51 48 47 47 44 41 42 46 52
28 25 23 23 23 23 23 24 25 25 26 27 29 31 34 37 39 42 44 45 47 49 49 50 50 50 51 51 54 55 55 57 61 66 71 74 77 81 84 87 89 92 96 99 102 103 102 101 101 103 104 103 102 102 102 101 99 97 96 94 92 92 91 89 87 84 83 83 80 76 73 71 68 66 64 61 60 58 56 54 51 50 50 47 43 41 45 51
28 25 23 21 21 21 21 22 23 23 24 25 26 28 30 32 34 37 39 41 44 46 48 49 50 51 52 54 55 53 53 56 61 65 69 72 73 75 78 82 85 89 94 98 102 103 103 102 101 104 106 105 104 104 105 105 103 100 98 97 95 94 94 92 89 86 84 84 83 79 76 73 71 71 69 65 63 62 58 56 54 53 52 49 45 42 44 50
27 25 23 20 20 20 20 21 21 22 23 23 24 26 27 29 31 32 35 37 39 42 44 46 48 49 51 53 54 53 54 57 60 64 68 69 69 70 73 77 81 85 91 97 101 103 105 105 104 105 108 107 105 105 106 106 105 103 101 100 98 97 97 96 93 90 87 86 86 83 79 76 75 74 72 68 67 65 61 58 56 55 54 50 48 45 44 50
27 24 22 20 19 19 19 20 20 21 22 22 23 24 26 27 29 31 33 34 36 38 40 43 45 46 48 50 52 53 54 57 59 63 66 66 66 67 68 73 77 82 88 94 99 103 106 107 106 106 108 108 106 107 107 108 108 107 105 105 104 101 100 99 95 92 90 89 89 86 82 79 78 77 76 73 70 68 66 61 58 57 55 53 51 48 46 50
27 24 22 19 18 18 18 19 19 20 21 21 22 23 24 26 27 29 31 33 34 36 38 40 42 43 45 47 49 51 53 56 58 61 64 63 64 65 67 70 74 78 84 90 95 101 105 107 106 106 107 108 108 109 110 111 112 112 110 110 108 104 101 98 95 92 90 90 90 87 84 82 82 82 80 78 74 72 70 65 60 59 57 55 53 49 47 50
27 23 21 19 17 17 17 18 18 19 20 20 21 22 23 25 26 28 30 32 33 34 36 38 40 41 42 45 47 49 51 53 55 58 61 61 63 65 66 68 71 75 79 85 91 97 103 106 107 106 108 109 110 111 112 113 114 114 112 111 111 107 102 98 95 92 90 90 90 88 85 85 87 86 84 82 78 75 74 68 62 60 58 57 54 49 47 50
27 23 20 18 17 16 16 17 17 18 19 20 21 22 23 24 26 28 29 31 33 34 35 37 38 39 40 43 45 47 49 51 53 56 58 58 60 63 65 67 70 72 76 82 88 93 99 104 106 107 108 110 112 113 113 113 113 113 113 112 113 111 106 101 97 94 91 90 90 89 88 88 90 89 86 84 81 77 74 67 60 60 58 55 53 49 47 50
27 23 20 17 16 15 15 16 17 18 19 19 20 22 23 24 26 27 29 30 32 33 34 35 37 38 39 42 44 46 48 50 51 53 55 56 58 60 63 65 68 70 74 80 85 90 96 100 104 107 108 110 113 115 114 113 113 113 113 113 114 113 109 104 101 97 93 91 90 91 91 92 92 90 87 85 83 79 74 67 62 61 59 55 54 52 50 51
29 24 20 17 16 15 14 15 17 18 19 20 20 21 23 24 25 27 28 30 31 32 34 36 37 38 39 41 43 45 47 48 50 51 52 54 55 57 60 63 66 69 73 78 82 87 91 94 99 104 106 108 113 115 115 114 114 114 114 114 114 114 110 106 103 99 95 92 90 92 94 94 93 92 89 87 85 81 76 71 68 63 60 59 57 54 51 48
30 26 21 17 15 15 14 14 15 17 18 19 20 21 22 23 25 26 28 30 32 33 35 36 38 40 40 42 43 44 46 46 47 48 49 50 52 54 57 60 63 67 71 76 79 83 85 88 93 98 102 106 111 115 115 114 114 114 114 114 114 112 110 108 105 102 98 94 93 95 97 95 94 94 91 88 87 83 77 75 72 66 62 60 58 55 52 49
32 27 23 19 16 15 14 14 14 15 17 18 19 20 21 23 24 26 28 30 32 34 35 37 38 40 41 42 42 42 43 44 44 44 45 46 48 51 55 59 61 64 68 72 76 79 81 84 89 93 97 102 108 113 114 113 112 113 113 113 112 111 111 110 108 105 102 99 98 99 100 98 96 96 94 91 89 85 80 77 75 71 66 63 61 59 56 52
34 28 24 20 17 15 14 15 15 15 16 17 17 19 21 22 24 26 28 29 31 33 35 36 38 38 39 40 40 40 40 41 41 42 43 44 47 50 54 57 59 61 64 67 71 75 77 81 86 89 92 97 104 111 114 113 112 111 112 112 112 113 114 112 110 107 106 105 104 104 103 101 99 98 95 92 90 87 83 81 78 75 72 68 66 64 61 58
36 30 25 21 18 16 14 14 15 16 16 17 17 19 20 22 24 26 27 28 30 32 33 35 36 37 37 38 38 38 38 39 40 41 42 44 47 49 51 54 56 57 59 62 66 70 73 77 83 87 89 93 100 107 112 113 112 110 111 113 113 114 116 114 111 110 110 110 109 109 108 104 100 98 95 91 91 89 87 85 82 79 76 73 71 69 65 61
Wind_Direction
269 267 267 266 265 265 264 263 261 259 257 255 252 250 247 244 243 243 242 240 238 235 232 231 228 226 225 224 224 222 219 216 215 214 215 217 218 219 220 220 219 218 217 217 217 216 216 216 217 218 220 221 220 220 221 225 225 221 223 225 224 224 222 210 208 217 229 246 272 280 279 286 290 283 276 268 283 302 309 318 327 330 334 337 339 339 342 344
268 266 265 265 264 263 262 261 260 258 256 254 253 250 248 245 242 241 240 240 238 236 233 231 228 226 225 224 224 224 222 219 217 216 215 216 218 219 219 220 220 220 219 218 218 218 218 217 217 217 218 220 221 221 223 226 228 224 224 228 226 224 223 217 217 227 237 249 287 286 281 282 281 281 283 285 290 299 305 317 325 324 329 335 336 337 339 342
269 267 265 264 263 262 261 260 259 258 256 254 252 251 248 246 243 240 239 238 238 237 235 232 229 227 225 223 223 224 224 221 218 218 217 215 218 219 219 220 220 221 221 221 220 220 220 220 220 220 220 220 221 222 223 227 229 228 227 230 230 227 228 225 228 233 235 247 249 251 265 271 276 282 284 284 282 291 304 313 320 321 327 332 334 335 337 341
270 268 266 264 262 261 260 259 258 257 255 254 252 250 249 247 244 241 238 237 236 236 235 234 230 228 225 224 223 223 224 223 219 220 219 216 218 220 219 219 220 220 221 222 222 222 222 222 222 222 222 222 223 223 223 226 229 230 229 231 232 230 231 230 229 230 231 243 243 248 259 260 269 270 265 270 272 291 305 311 316 318 325 330 330 333 337 341
271 269 267 265 263 261 260 258 257 256 255 254 252 250 249 247 245 242 239 237 235 235 234 234 232 229 226 225 223 223 224 223 221 222 220 218 218 219 220 219 219 220 220 222 222 223 223 223 223 223 223 223 224 225 224 226 229 231 231 232 233 231 231 230 227 229 229 231 237 247 252 249 257 258 255 256 262 293 303 305 311 315 322 325 327 332 338 341
270 268 267 265 263 261 260 258 257 256 255 254 253 251 249 248 246 243 241 238 236 234 233 233 233 231 229 226 224 224 224 222 221 223 221 220 220 219 221 221 219 219 219 221 222 223 224 224 224 224 224 223 224 225 226 227 229 231 232 232 233 231 229 229 226 229 223 218 234 237 238 238 233 239 250 252 257 282 288 293 303 310 320 323 326 334 339 341
269 268 267 265 264 262 260 258 257 256 255 254 253 252 250 249 247 245 243 240 238 235 234 233 232 232 230 228 226 225 225 222 220 223 222 221 221 219 220 222 221 219 218 219 221 222 223 223 224 224 224 224 224 224 225 227 229 231 233 232 234 232 229 227 225 228 219 213 234 238 236 239 237 244 253 250 254 263 266 286 301 309 319 321 326 335 339 340
268 267 266 265 264 262 261 259 257 256 254 253 252 252 251 250 248 246 245 242 240 237 235 234 232 232 231 230 228 227 226 223 219 223 223 222 222 220 219 222 222 221 219 218 219 221 222 223 223 224 223 224 224 224 224 226 227 230 231 232 233 232 230 226 222 225 218 210 225 240 244 248 251 256 254 252 258 256 261 286 298 307 316 318 328 336 338 339
268 267 266 265 263 262 261 259 258 256 254 253 252 251 251 250 249 247 246 244 242 240 238 236 234 232 231 230 230 229 227 223 219 222 223 222 223 221 219 221 223 223 220 218 219 220 221 222 223 223 223 224 224 224 225 225 226 227 229 231 232 232 230 226 222 220 217 211 219 235 244 247 253 259 255 252 252 247 260 284 293 306 316 316 328 335 337 339
266 266 265 264 263 262 260 259 258 256 255 253 252 251 250 249 249 247 246 245 243 242 239 238 236 234 233 231 231 230 228 224 221 222 222 221 223 223 220 220 222 223 222 220 218 219 220 221 222 223 223 224 223 223 224 225 226 226 226 228 228 229 229 227 222 220 218 213 216 227 236 241 248 255 255 252 250 248 260 277 286 303 316 315 325 331 333 336
265 264 263 263 262 262 260 259 258 256 255 253 252 251 250 249 248 247 246 245 244 243 241 239 237 235 234 232 232 232 229 227 223 221 222 221 222 223 222 220 221 223 224 222 219 219 220 220 221 222 222 223 223 223 224 225 226 226 226 227 226 226 226 225 223 221 220 216 215 222 229 233 236 243 250 253 251 252 262 272 278 289 300 304 314 323 330 334
265 263 261 260 260 260 259 259 258 257 255 254 252 251 250 248 248 247 246 245 244 243 242 240 239 237 236 234 233 233 230 229 226 223 222 221 221 222 223 221 220 222 224 223 221 219 220 220 220 221 221 222 223 223 224 225 225 226 227 228 228 227 226 224 223 222 220 216 214 217 224 228 230 239 246 247 247 252 263 271 277 282 288 294 302 315 328 332
266 264 262 260 258 257 257 257 257 256 255 254 253 251 250 249 247 246 246 245 244 243 242 241 240 238 237 235 235 234 232 230 229 226 223 222 221 221 222 222 221 221 222 224 223 220 219 220 221 221 221 222 222 222 223 224 224 225 226 227 228 229 228 225 223 222 220 217 217 219 226 227 222 232 242 244 250 258 266 271 276 280 285 289 294 308 322 327
266 264 262 260 258 256 255 254 254 254 254 253 253 252 250 249 248 247 246 245 244 243 242 241 240 239 237 236 235 235 233 232 231 229 226 224 222 221 222 222 222 221 221 223 224 222 219 219 220 221 221 221 222 222 223 224 224 225 226 227 227 228 229 227 225 224 221 219 221 222 225 227 219 225 241 250 258 263 265 268 272 275 278 280 287 304 316 320
266 264 262 260 259 257 255 253 252 252 252 252 251 251 250 249 248 247 246 245 244 243 242 241 240 239 238 236 235 235 234 233 231 230 228 226 224 223 222 222 222 221 221 221 223 223 221 219 220 220 221 222 222 222 223 224 224 226 227 228 228 229 229 228 227 227 225 222 223 222 220 226 229 231 240 252 262 266 265 265 267 268 268 272 283 298 307 314
265 263 261 260 258 257 255 253 252 250 250 250 250 249 249 249 248 247 246 245 244 243 242 241 240 239 238 237 236 235 234 233 232 231 230 228 226 224 223 223 222 222 221 221 222 223 222 220 219 220 221 222 222 222 224 224 224 224 226 227 228 230 230 230 229 228 228 227 226 225 222 228 237 239 239 240 249 258 261 260 261 263 263 265 272 284 295 305
266 263 261 259 257 256 255 253 252 250 249 248 248 248 247 247 247 247 246 245 244 243 242 241 239 238 238 237 236 235 235 233 232 231 230 229 228 226 225 224 223 222 222 221 222 222 222 221 220 219 220 222 223 222 224 224 223 223 225 226 227 229 230 230 230 229 229 230 230 230 231 236 242 244 243 238 235 241 251 255 256 260 263 261 263 275 285 292
265 263 260 258 256 255 253 252 251 250 249 248 247 246 246 246 246 245 245 245 244 243 242 241 240 239 238 237 236 236 235 234 233 232 230 230 229 228 226 225 224 223 222 221 222 222 222 221 220 219 219 221 223 221 223 224 223 223 225 226 226 228 230 230 231 230 230 232 232 232 235 240 242 243 244 243 239 240 248 254 255 259 261 259 261 269 275 283
261 260 258 256 254 253 251 250 250 249 248 247 247 246 245 245 245 244 244 243 243 243 242 241 240 239 238 237 236 235 235 235 234 233 231 230 229 228 228 226 225 224 223 222 222 222 222 222 221 220 219 220 222 222 224 225 224 224 225 226 226 227 229 230 231 231 232 234 234 233 234 239 241 241 241 242 244 246 249 254 256 256 254 255 262 266 269 279
255 255 254 253 251 250 249 248 248 247 247 247 246 245 245 244 244 244 243 243 242 241 241 241 240 240 239 238 236 235 235 235 235 234 232 231 229 228 228 227 226 225 224 223 222 221 221 222 222 221 220 220 221 222 224 226 225 224 225 226 226 227 228 229 230 230 231 234 236 236 236 238 241 242 240 241 245 245 246 249 250 250 250 253 263 264 266 275
252 251 250 250 249 248 247 246 246 245 245 245 245 244 244 243 244 243 243 243 242 241 240 240 239 239 239 238 237 236 235 234 234 234 233 232 230 229 228 227 227 226 225 224 223 222 221 221 222 222 222 220 221 221 223 226 225 224 225 226 226 226 227 228 229 229 230 232 234 236 237 237 241 244 244 244 245 245 245 245 244 247 250 253 261 262 264 269
255 252 250 249 249 248 246 245 245 244 243 243 243 243 243 243 243 243 243 242 242 241 240 239 238 238 237 238 237 236 236 234 233 234 234 233 232 230 229 228 227 227 226 225 224 222 221 220 221 222 223 221 221 221 222 225 226 224 225 227 227 227 226 227 228 227 228 230 231 234 235 236 238 242 244 245 245 247 246 243 244 249 250 251 257 261 263 262
260 256 253 251 250 249 248 247 246 244 243 243 242 242 242 242 242 242 242 242 241 241 240 239 238 238 237 236 236 236 235 235 234 234 234 233 233 232 230 228 227 226 226 226 224 223 221 221 221 222 223 222 221 222 223 224 225 224 224 227 228 227 227 227 228 227 227 229 230 231 233 234 235 238 241 243 243 245 246 245 246 249 249 250 254 258 258 253
266 262 258 254 252 250 250 249 248 247 246 245 243 242 242 242 242 242 241 241 241 240 240 240 239 238 237 236 236 235 235 234 234 234 233 233 233 232 231 229 227 227 226 226 225 223 222 221 222 222 223 223 222 222 223 223 224 224 223 225 228 228 227 227 228 228 228 230 231 232 234 234 234 236 239 241 241 242 245 245 245 246 248 251 252 253 251 250
271 266 262 258 254 252 250 249 249 248 248 247 246 245 243 243 242 242 242 241 241 241 240 240 239 239 238 237 236 235 235 234 233 234 233 233 233 232 232 231 229 227 226 225 225 224 223 222 222 223 223 223 223 223 223 223 224 223 222 223 226 228 229 228 229 229 229 230 232 233 235 235 235 236 238 240 240 240 241 242 244 245 247 250 250 248 246 248
274 269 264 261 257 254 252 249 248 248 248 248 248 247 246 245 244 243 243 242 242 241 241 240 240 240 239 238 238 236 236 234 233 233 233 232 232 232 232 231 230 229 227 226 225 224 224 224 223 223 223 223 222 223 223 223 223 223 222 222 224 228 230 230 229 229 229 229 230 231 234 236 236 237 239 240 240 240 241 241 242 243 243 246 246 245 245 245
277 272 267 263 260 257 254 251 249 247 247 247 247 247 247 246 246 245 245 244 243 242 242 241 240 240 239 239 238 237 236 235 234 234 234 232 232 232 232 231 231 230 228 226 225 224 224 224 224 223 223 223 222 222 223 223 223 223 223 221 222 226 229 230 229 228 228 229 229 228 231 234 236 236 237 238 240 241 241 240 239 239 239 240 242 242 243 240
280 274 269 265 262 258 256 254 251 248 247 246 246 246 246 246 246 246 246 246 244 243 243 243 242 241 240 239 239 238 236 235 234 234 235 233 232 232 231 231 231 230 229 227 226 225 224 224 225 224 223 223 222 222 223 223 223 223 224 222 221 224 228 230 230 227 228 229 229 227 228 229 232 234 234 233 235 237 238 237 235 235 235 236 238 238 238 234
283 277 271 266 263 260 257 255 253 250 248 247 246 246 246 245 245 245 246 245 244 243 243 243 243 242 241 240 239 238 237 236 234 234 235 234 232 232 231 231 231 230 229 227 226 225 224 224 224 225 225 224 223 223 223 223 222 223 224 223 222 224 227 230 230 228 227 230 230 229 228 227 227 231 232 230 228 230 233 234 232 232 232 231 232 232 232 228
284 278 272 267 263 260 258 256 254 251 249 248 247 246 245 245 245 245 245 245 244 243 242 242 243 244 243 241 240 239 238 237 235 235 235 234 233 232 232 231 230 230 229 228 227 226 225 224 223 223 224 224 224 223 223 223 223 223 224 224 224 223 225 228 229 228 226 225 227 229 227 225 225 227 229 227 225 225 228 230 229 229 228 226 226 226 225 221
284 278 273 267 263 260 257 255 253 252 250 249 248 246 245 245 245 245 245 244 244 243 242 242 243 244 244 242 240 239 238 237 236 235 235 235 234 233 233 231 230 229 229 227 227 226 226 225 224 223 223 224 224 223 223 223 223 223 224 224 225 224 225 227 228 229 226 221 222 226 224 221 223 225 223 223 224 223 224 226 226 226 227 224 223 223 221 216
284 278 273 268 263 260 257 254 253 251 250 249 248 247 246 245 245 245 245 245 245 245 244 243 243 242 243 242 239 238 238 238 236 236 236 235 234 234 233 231 230 229 228 228 227 227 226 226 225 224 223 224 225 224 222 221 222 223 223 224 225 225 225 227 227 229 226 219 219 223 223 219 220 222 218 217 221 221 221 224 224 223 224 222 221 220 217 214
286 279 274 268 264 260 257 254 253 251 250 248 248 247 246 246 246 245 245 246 246 245 244 243 242 241 242 242 240 238 238 238 235 234 235 235 235 234 232 231 229 228 228 228 227 226 226 225 225 225 224 223 225 225 223 222 222 222 222 222 224 225 225 225 225 227 226 221 219 222 224 220 218 222 220 214 215 217 219 223 221 221 222 221 220 219 215 213
290 283 276 270 265 261 257 255 253 251 250 249 248 247 246 246 247 247 246 244 243 242 241 241 241 241 241 242 241 239 238 238 235 234 234 234 234 234 232 230 228 228 228 228 227 226 226 225 224 224 224 223 224 224 223 223 223 223 222 222 223 224 224 223 223 225 225 221 218 220 223 220 218 222 222 216 213 213 217 222 221 220 222 220 219 219 216 214
295 287 279 273 267 262 258 255 253 251 250 249 248 247 246 246 246 246 244 241 240 240 240 241 241 241 241 241 241 240 239 238 237 236 235 234 234 233 232 230 228 228 229 228 227 226 225 225 225 224 224 224 225 225 224 223 223 224 223 223 223 224 224 223 221 223 224 222 219 220 222 221 218 220 221 219 214 211 214 221 223 221 220 219 218 218 217 216
300 291 282 275 269 264 260 256 254 252 250 249 248 247 247 246 246 246 243 240 241 241 240 241 240 240 240 239 239 239 239 238 237 236 236 235 233 233 231 230 229 228 228 229 227 225 225 225 225 224 223 223 224 225 224 223 223 224 223 223 223 224 224 222 221 222 223 222 220 220 221 221 220 219 220 220 216 211 212 218 224 225 221 218 219 220 219 217
303 293 285 279 273 267 262 258 255 253 251 250 249 248 247 247 246 246 244 243 243 243 240 240 240 239 239 237 236 236 236 236 234 234 235 235 234 232 231 230 229 228 228 229 228 226 224 225 225 224 222 222 222 224 224 223 223 224 225 223 223 224 224 223 221 221 223 223 220 219 219 220 221 219 218 220 219 213 211 214 221 227 223 218 218 221 221 218
308 296 287 281 276 271 266 262 258 254 252 250 249 247 246 245 244 245 245 244 245 245 242 241 240 239 237 235 234 234 234 234 232 232 234 235 234 233 231 230 228 227 228 228 228 226 224 225 225 224 223 222 221 223 224 223 222 224 225 224 223 224 224 223 221 220 222 223 222 219 218 219 221 220 217 219 220 215 210 211 217 225 226 222 219 219 221 219
311 301 290 283 278 273 269 265 260 257 253 250 249 246 244 244 244 244 244 243 243 244 243 241 240 240 239 236 235 234 233 233 232 232 234 235 234 233 231 229 227 226 228 228 227 225 223 223 224 224 223 222 221 221 222 223 222 222 223 223 223 224 224 223 222 220 220 222 222 219 217 218 220 220 218 218 220 218 212 209 213 221 227 226 221 218 218 218
315 306 295 286 280 274 270 265 261 258 254 251 248 246 244 243 243 243 242 242 242 243 243 242 241 241 241 239 237 234 234 234 232 232 233 233 234 233 230 228 226 226 227 228 227 226 224 223 224 224 222 221 221 220 221 222 221 221 222 222 221 222 223 222 221 220 220 222 223 220 218 217 218 220 219 217 219 219 214 208 210 218 224 225 224 220 217 217
318 310 300 290 281 275 270 266 261 258 255 251 249 246 244 243 242 242 241 241 241 241 242 242 241 241 241 241 239 236 234 234 234 233 233 232 232 233 231 229 227 226 226 227 227 226 225 223 223 225 223 220 220 220 220 222 222 222 223 223 221 221 222 221 220 218 218 220 223 221 219 217 217 219 219 217 218 220 216 208 207 215 221 223 225 222 218 216
321 313 304 295 285 276 270 266 262 259 256 253 250 248 246 244 243 243 242 241 240 241 241 242 241 240 241 242 241 238 236 235 235 236 236 234 232 232 232 230 227 225 226 227 226 225 225 222 221 224 224 220 219 220 220 221 221 221 222 224 222 221 221 220 218 216 215 217 220 221 219 218 217 219 219 218 218 219 218 211 207 213 219 221 224 222 217 216
325 316 307 299 290 280 272 267 263 261 257 254 251 249 248 246 245 244 244 242 242 241 241 242 241 241 241 242 242 240 239 237 236 237 238 237 234 231 231 231 229 226 225 226 226 225 225 223 221 222 224 222 219 219 220 220 220 220 220 222 222 221 221 221 219 216 215 215 218 219 218 217 217 218 219 218 217 218 220 214 207 210 216 218 222 220 215 215
329 320 311 303 294 282 274 269 264 261 259 256 253 251 249 248 247 246 245 244 243 243 242 242 242 241 241 242 242 241 240 239 238 238 238 237 236 234 230 230 229 228 226 226 227 226 225 224 221 221 224 223 220 219 219 220 220 219 219 221 222 221 221 222 221 218 216 216 218 218 217 217 217 217 218 218 217 216 219 216 208 209 214 216 220 219 213 213
333 324 314 305 296 284 276 270 264 261 259 256 255 252 250 249 248 247 247 246 246 244 244 244 243 243 241 242 242 241 241 241 240 240 239 237 236 235 233 230 229 227 227 227 227 226 225 224 222 220 222 223 222 220 219 219 220 220 219 220 222 222 220 220 221 220 218 217 218 219 217 217 218 218 217 218 217 215 217 215 207 206 212 216 218 218 213 211
337 328 318 308 299 288 280 275 268 264 260 257 256 254 252 251 249 248 248 247 247 246 246 245 245 244 243 243 243 243 242 241 241 241 241 239 236 235 234 233 230 227 227 228 228 226 225 224 223 221 221 222 223 221 220 219 220 220 219 219 221 222 220 218 219 220 219 217 218 218 218 217 219 219 217 217 218 217 217 215 208 206 211 215 217 219 217 211
341 333 323 313 303 291 283 277 271 267 263 260 258 256 255 254 253 252 251 251 251 251 250 250 249 248 246 245 244 244 243 243 242 242 242 241 239 237 235 234 232 229 227 228 229 228 226 224 223 221 220 221 223 222 220 219 219 220 220 219 220 221 220 218 217 218 218 218 217 218 218 218 219 220 219 218 218 218 217 215 212 209 209 213 215 219 221 214
344 338 329 318 306 295 286 279 273 269 265 262 261 259 258 258 257 256 256 255 254 254 253 253 252 251 249 248 247 246 245 245 244 244 244 243 242 240 239 236 233 231 229 228 228 229 228 226 224 222 220 221 223 223 221 219 218 219 220 220 220 221 221 219 217 216 217 216 217 218 219 218 219 220 220 219 218 218 216 216 215 212 209 213 215 216 221 219
346 341 334 324 310 300 291 282 274 271 268 265 264 263 261 260 260 259 258 257 257 256 255 254 254 254 253 251 250 249 249 248 247 246 246 246 244 243 242 240 236 233 232 230 229 229 229 228 226 223 221 221 222 224 223 220 218 218 219 220 220 220 221 220 218 216 215 215 215 217 219 218 219 220 220 219 219 218 216 216 216 214 211 213 215 214 218 221
350 344 338 330 319 309 300 291 283 277 274 270 268 267 265 264 263 261 261 260 260 260 260 258 258 257 257 256 255 254 254 254 253 252 251 249 247 245 244 242 239 236 234 232 231 229 228 228 228 224 222 221 222 224 224 222 219 219 219 219 219 220 220 220 219 217 215 214 214 216 218 217 218 220 219 218 219 218 216 216 216 215 213 212 214 214 213 216
354 349 343 335 327 318 308 299 292 286 282 277 273 270 268 267 266 265 265 265 264 264 264 264 263 263 262 261 260 259 258 258 258 256 255 253 250 247 245 244 242 238 236 234 233 230 228 227 228 226 222 221 221 223 224 222 220 218 218 219 219 219 219 218 218 217 216 215 214 215 216 215 215 219 219 218 218 217 216 216 216 215 214 212 212 214 211 211
357 353 348 340 332 324 313 303 297 290 287 284 280 276 273 270 269 269 269 269 269 268 268 269 269 268 266 265 264 262 261 259 258 257 255 254 252 249 248 247 245 241 238 236 234 232 229 227 227 226 223 221 221 222 223 222 220 218 218 218 218 218 219 218 216 216 216 216 215 215 216 214 213 217 219 218 218 217 215 216 216 215 215 213 212 213 210 208
Height
10921 10921 10922 10922 10923 10923 10923 10924 10924 10925 10926 10927 10928 10930 10931 10933 10935 10936 10938 10940 10942 10944 10946 10948 10950 10951 10953 10954 10955 10956 10958 10959 10960 10962 10964 10966 10968 10970 10972 10975 10978 10981 10983 10985 10988 10990 10992 10993 10995 10997 10999 11001 11003 11004 11006 11008 11010 11013 11014 11016 11018 11020 11022 11023 11024 11024 11025 11023 11021 11022 11023 11025 11026 11028 11030 11029 11028 11026 11025 11024 11022 11022 11021 11020 11019 11018 11016 11015
10916 10917 10917 10918 10918 10919 10919 10919 10920 10921 10921 10923 10924 10925 10927 10928 10930 10932 10934 10936 10938 10940 10942 10944 10946 10948 10949 10951 10952 10953 10954 10956 10958 10959 10960 10962 10964 10966 10969 10972 10975 10978 10980 10982 10984 10986 10988 10990 10992 10994 10996 10998 11000 11002 11004 11006 11008 11011 11013 11014 11016 11018 11020 11021 11022 11023 11023 11022 11022 11023 11024 11025 11026 11027 11026 11027 11027 11025 11025 11024 11023 11022 11021 11020 11019 11018 11017 11016
10911 10911 10912 10913 10913 10914 10914 10915 10915 10916 10917 10918 10919 10920 10922 10924 10925 10927 10929 10931 10933 10935 10937 10939 10941 10943 10945 10947 10948 10950 10951 10952 10955 10956 10957 10959 10961 10962 10965 10968 10971 10974 10977 10979 10982 10984 10986 10988 10990 10992 10994 10996 10998 11000 11002 11004 11006 11009 11011 11012 11014 11016 11018 11020 11021 11022 11022 11022 11023 11024 11024 11024 11026 11026 11025 11023 11023 11024 11024 11024 11023 11022 11022 11021 11020 11019 11018 11016
10905 10906 10906 10907 10908 10909 10909 10910 10910 10911 10912 10913 10914 10915 10917 10918 10920 10922 10925 10926 10928 10930 10932 10934 10937 10939 10941 10943 10944 10946 10947 10948 10952 10953 10954 10956 10957 10958 10961 10964 10967 10970 10973 10976 10978 10981 10983 10985 10988 10990 10992 10994 10995 10997 11000 11002 11004 11006 11009 11010 11012 11015 11017 11019 11020 11021 11022 11022 11022 11023 11023 11023 11023 11024 11024 11022 11022 11022 11023 11023 11023 11023 11022 11021 11020 11019 11018 11017
10899 10899 10900 10901 10902 10903 10904 10905 10905 10906 10907 10908 10909 10910 10912 10913 10915 10917 10919 10921 10924 10925 10928 10930 10932 10934 10936 10938 10940 10942 10943 10945 10948 10949 10950 10953 10954 10955 10957 10959 10963 10966 10969 10972 10975 10977 10980 10982 10985 10987 10989 10991 10993 10995 10998 11000 11001 11004 11006 11008 11010 11013 11015 11017 11019 11019 11020 11022 11022 11021 11021 11021 11021 11021 11022 11023 11023 11023 11023 11022 11022 11022 11022 11022 11021 11019 11018 11017
10892 10893 10893 10894 10895 10896 10898 10899 10900 10901 10902 10903 10904 10905 10906 10908 10909 10912 10914 10916 10919 10920 10923 10925 10927 10929 10931 10934 10936 10938 10939 10941 10944 10944 10947 10949 10950 10952 10953 10955 10958 10961 10965 10968 10970 10973 10976 10979 10981 10984 10986 10988 10990 10992 10995 10997 10999 11001 11003 11005 11008 11010 11013 11015 11016 11018 11018 11020 11021 11020 11020 11021 11022 11021 11022 11025 11027 11027 11025 11022 11022 11022 11022 11022 11021 11019 11018 11017
10885 10886 10886 10887 10888 10889 10890 10892 10893 10894 10896 10897 10899 10900 10901 10903 10904 10906 10908 10911 10913 10915 10917 10919 10922 10924 10926 10929 10930 10933 10934 10936 10940 10941 10943 10945 10946 10949 10950 10952 10954 10957 10960 10963 10966 10969 10972 10975 10977 10980 10982 10984 10987 10990 10992 10994 10996 10998 11000 11003 11005 11008 11010 11012 11014 11016 11016 11018 11019 11019 11020 11021 11022 11021 11022 11026 11028 11027 11024 11022 11022 11022 11022 11022 11020 11019 11019 11018
10878 10878 10879 10879 10880 10881 10883 10884 10886 10887 10889 10891 10893 10894 10895 10897 10899 10901 10903 10905 10907 10910 10912 10914 10916 10918 10921 10923 10925 10928 10927 10930 10936 10937 10938 10941 10942 10945 10947 10948 10950 10953 10956 10958 10961 10964 10967 10970 10973 10976 10978 10981 10984 10987 10989 10991 10993 10995 10997 11000 11002 11004 11007 11009 11011 11013 11014 11015 11017 11018 11019 11020 11020 11020 11020 11023 11025 11025 11023 11022 11021 11021 11021 11021 11020 11020 11019 11018
10870 10871 10871 10872 10873 10874 10875 10876 10878 10880 10882 10884 10886 10887 10889 10891 10893 10895 10897 10899 10901 10904 10906 10908 10911 10913 10915 10917 10920 10921 10921 10926 10932 10932 10933 10937 10938 10940 10943 10944 10946 10948 10951 10954 10957 10960 10962 10966 10969 10972 10975 10978 10981 10984 10986 10987 10989 10991 10994 10996 10998 11001 11003 11006 11008 11010 11012 11013 11015 11017 11018 11018 11018 11018 11018 11020 11023 11024 11023 11022 11021 11020 11020 11020 11020 11020 11019 11019
10862 10862 10863 10864 10864 10865 10866 10868 10870 10871 10873 10876 10878 10880 10882 10884 10886 10888 10890 10893 10895 10898 10900 10902 10905 10907 10910 10912 10914 10914 10916 10922 10926 10926 10929 10932 10933 10936 10939 10941 10942 10944 10947 10950 10953 10955 10958 10961 10965 10968 10971 10974 10977 10979 10981 10983 10985 10987 10990 10991 10993 10996 10999 11003 11005 11007 11009 11011 11013 11014 11015 11016 11017 11015 11014 11017 11020 11021 11021 11022 11021 11020 11020 11020 11020 11020 11019 11019
10852 10853 10854 10855 10855 10856 10858 10859 10861 10863 10865 10867 10869 10872 10874 10877 10879 10881 10884 10886 10889 10891 10894 10896 10899 10902 10904 10906 10908 10908 10912 10917 10918 10920 10923 10926 10929 10931 10933 10936 10938 10940 10942 10945 10948 10951 10954 10957 10960 10963 10966 10969 10972 10975 10977 10979 10981 10983 10985 10985 10988 10991 10994 10998 11001 11003 11005 11007 11010 11011 11012 11014 11014 11012 11011 11013 11015 11017 11018 11020 11020 11020 11020 11019 11020 11020 11019 11019
10841 10843 10844 10845 10846 10847 10848 10850 10852 10854 10856 10858 10860 10863 10865 10868 10871 10873 10876 10879 10881 10884 10887 10890 10893 10896 10898 10900 10902 10903 10907 10910 10912 10915 10918 10920 10923 10925 10928 10931 10934 10936 10938 10941 10944 10947 10950 10952 10955 10958 10961 10964 10967 10970 10973 10975 10978 10980 10981 10982 10985 10987 10990 10995 10997 10998 11001 11004 11006 11007 11008 11009 11010 11010 11010 11011 11012 11014 11016 11018 11019 11019 11019 11019 11020 11020 11020 11019
10829 10831 10834 10835 10836 10837 10839 10840 10842 10844 10846 10849 10851 10853 10856 10859 10862 10865 10868 10871 10874 10877 10880 10883 10886 10889 10891 10894 10896 10897 10901 10903 10906 10910 10912 10915 10918 10920 10923 10925 10929 10931 10933 10936 10939 10943 10946 10948 10950 10953 10956 10958 10961 10965 10967 10969 10973 10975 10976 10979 10981 10983 10985 10990 10993 10994 10997 11000 11002 11003 11005 11005 11007 11007 11007 11009 11011 11013 11014 11016 11017 11018 11018 11019 11019 11020 11020 11019
10818 10820 10822 10824 10826 10827 10828 10830 10832 10834 10836 10839 10841 10844 10846 10849 10852 10856 10859 10862 10866 10869 10872 10875 10878 10881 10884 10887 10889 10891 10894 10897 10900 10903 10907 10909 10912 10915 10917 10920 10924 10926 10929 10931 10934 10938 10941 10943 10946 10948 10951 10953 10957 10960 10961 10965 10968 10970 10972 10974 10976 10977 10980 10986 10990 10991 10993 10996 10998 11000 11002 11003 11004 11004 11005 11008 11010 11011 11013 11014 11015 11017 11018 11018 11019 11019 11019 11019
10807 10808 10810 10812 10814 10816 10817 10819 10821 10823 10825 10827 10830 10834 10836 10839 10843 10846 10849 10853 10856 10860 10864 10867 10871 10874 10877 10880 10882 10884 10887 10890 10894 10897 10900 10903 10906 10909 10912 10914 10917 10920 10923 10926 10929 10932 10936 10939 10941 10943 10946 10948 10952 10955 10956 10960 10964 10966 10969 10970 10971 10973 10976 10982 10986 10989 10991 10993 10995 10997 10998 10999 11000 11002 11006 11009 11010 11010 11010 11012 11013 11015 11017 11018 11018 11019 11019 11019
10797 10797 10799 10801 10802 10804 10806 10808 10810 10811 10813 10816 10819 10822 10826 10829 10832 10836 10839 10843 10847 10851 10855 10859 10862 10866 10869 10871 10874 10877 10880 10883 10886 10890 10893 10896 10900 10903 10905 10907 10911 10915 10918 10921 10924 10927 10930 10934 10936 10939 10942 10944 10947 10950 10952 10955 10958 10961 10963 10965 10968 10970 10973 10978 10982 10985 10988 10990 10992 10993 10994 10996 10996 11000 11005 11010 11012 11010 11008 11009 11011 11013 11015 11017 11017 11019 11019 11019
10785 10786 10788 10789 10791 10792 10794 10796 10798 10800 10801 10804 10807 10811 10815 10818 10822 10825 10829 10833 10836 10841 10845 10849 10853 10857 10860 10863 10867 10870 10872 10875 10879 10882 10886 10889 10893 10896 10898 10901 10905 10909 10912 10916 10919 10921 10925 10928 10932 10935 10938 10940 10942 10946 10947 10948 10950 10954 10956 10960 10963 10966 10969 10974 10976 10980 10985 10987 10988 10989 10991 10992 10993 10996 11001 11007 11011 11010 11007 11007 11009 11010 11013 11015 11016 11018 11018 11019
10773 10773 10775 10777 10778 10780 10782 10784 10786 10788 10790 10792 10795 10799 10802 10806 10810 10814 10818 10822 10826 10830 10834 10839 10843 10848 10852 10855 10858 10861 10864 10867 10871 10874 10878 10881 10885 10888 10891 10895 10899 10902 10906 10910 10912 10915 10919 10923 10926 10931 10934 10935 10937 10940 10939 10939 10944 10950 10953 10956 10959 10962 10965 10969 10971 10975 10981 10982 10982 10985 10987 10987 10989 10992 10995 11000 11004 11006 11006 11006 11007 11009 11011 11013 11015 11017 11018 11018
10759 10759 10760 10762 10765 10767 10769 10771 10773 10775 10778 10780 10783 10787 10790 10794 10798 10802 10806 10811 10815 10820 10824 10828 10833 10838 10842 10845 10849 10853 10856 10860 10863 10866 10870 10873 10877 10881 10884 10888 10892 10895 10899 10903 10906 10910 10914 10917 10922 10926 10928 10928 10930 10933 10932 10934 10942 10947 10949 10952 10956 10959 10962 10965 10967 10972 10976 10975 10976 10980 10983 10983 10984 10987 10991 10995 10999 11002 11003 11003 11004 11007 11010 11012 11013 11015 11017 11017
10744 10744 10745 10747 10750 10753 10755 10758 10760 10763 10765 10768 10771 10775 10778 10782 10786 10790 10794 10799 10803 10808 10813 10817 10822 10828 10832 10834 10839 10845 10848 10852 10855 10857 10861 10865 10869 10873 10877 10881 10885 10889 10893 10896 10899 10904 10908 10913 10917 10919 10920 10922 10925 10927 10927 10931 10939 10942 10944 10948 10951 10954 10957 10960 10962 10967 10970 10970 10972 10975 10979 10981 10979 10982 10988 10992 10995 10998 11000 11001 11002 11005 11008 11011 11012 11014 11015 11016
10730 10730 10731 10732 10734 10738 10741 10744 10747 10750 10753 10756 10759 10762 10766 10770 10773 10777 10782 10786 10791 10797 10801 10806 10812 10817 10820 10823 10829 10835 10838 10843 10846 10848 10851 10856 10860 10865 10869 10873 10878 10882 10885 10889 10892 10898 10903 10908 10911 10911 10913 10916 10919 10922 10924 10928 10933 10938 10940 10942 10946 10949 10952 10954 10957 10962 10964 10965 10968 10970 10974 10978 10977 10979 10984 10989 10992 10995 10997 10999 11001 11004 11007 11009 11011 11012 11014 11015
10718 10718 10719 10720 10721 10724 10728 10731 10734 10737 10741 10744 10748 10750 10754 10758 10761 10765 10770 10773 10778 10784 10789 10794 10800 10804 10809 10812 10817 10823 10828 10833 10838 10840 10842 10847 10852 10856 10861 10866 10871 10874 10877 10881 10886 10892 10898 10902 10902 10902 10905 10910 10914 10917 10919 10923 10928 10933 10936 10937 10941 10944 10947 10949 10950 10955 10957 10959 10963 10965 10968 10973 10976 10978 10980 10985 10989 10991 10994 10997 10999 11002 11004 11007 11009 11010 11012 11014
10707 10707 10708 10709 10710 10712 10715 10719 10722 10725 10729 10732 10736 10739 10742 10746 10750 10753 10757 10761 10766 10772 10777 10783 10788 10792 10797 10801 10806 10812 10816 10822 10828 10830 10834 10838 10843 10849 10853 10857 10861 10865 10869 10873 10878 10884 10890 10893 10893 10894 10899 10904 10908 10911 10914 10919 10923 10928 10932 10933 10935 10938 10940 10942 10943 10948 10952 10954 10957 10960 10963 10969 10974 10975 10975 10981 10986 10988 10991 10993 10996 10998 11001 11004 11006 11008 11010 11012
10698 10698 10698 10698 10700 10701 10704 10707 10711 10715 10718 10721 10723 10728 10731 10734 10738 10742 10746 10749 10753 10759 10765 10771 10776 10780 10784 10788 10794 10799 10803 10812 10818 10820 10824 10830 10835 10840 10842 10846 10852 10856 10860 10865 10870 10876 10882 10884 10885 10888 10893 10898 10902 10906 10910 10914 10918 10922 10926 10928 10930 10931 10933 10935 10938 10943 10948 10951 10953 10956 10960 10965 10970 10970 10971 10977 10982 10985 10987 10989 10992 10995 10998 11001 11003 11005 11007 11010
10689 10688 10688 10689 10690 10691 10692 10695 10700 10704 10708 10710 10712 10716 10720 10723 10727 10731 10734 10737 10742 10747 10753 10759 10764 10767 10772 10777 10782 10787 10792 10801 10807 10808 10814 10820 10826 10830 10832 10836 10842 10847 10852 10856 10861 10868 10873 10875 10878 10882 10887 10891 10896 10901 10904 10908 10912 10916 10921 10923 10924 10925 10927 10930 10934 10939 10945 10949 10951 10955 10958 10961 10965 10967 10969 10974 10979 10981 10983 10985 10988 10992 10995 10997 10999 11002 11005 11007
10681 10680 10680 10680 10680 10681 10682 10684 10688 10692 10695 10698 10701 10705 10709 10713 10716 10720 10724 10726 10730 10736 10740 10747 10753 10754 10759 10765 10770 10775 10782 10790 10795 10797 10802 10809 10815 10819 10822 10827 10833 10837 10842 10847 10854 10861 10865 10867 10871 10875 10879 10884 10889 10894 10898 10902 10906 10911 10915 10917 10918 10920 10922 10925 10930 10935 10941 10944 10947 10953 10955 10956 10961 10964 10967 10971 10974 10976 10978 10982 10985 10988 10991 10993 10996 10999 11002 11005
10673 10672 10672 10671 10672 10672 10673 10674 10678 10681 10682 10685 10689 10692 10696 10701 10704 10709 10712 10714 10719 10726 10730 10736 10740 10741 10747 10753 10757 10763 10770 10776 10782 10787 10791 10797 10804 10808 10812 10818 10822 10826 10832 10839 10847 10853 10857 10860 10863 10867 10871 10876 10882 10887 10891 10895 10900 10905 10908 10911 10914 10915 10917 10920 10925 10931 10935 10937 10943 10950 10951 10953 10957 10960 10963 10968 10971 10972 10974 10977 10981 10984 10986 10989 10992 10995 10998 11002
10666 10665 10664 10663 10663 10664 10664 10665 10667 10670 10671 10673 10677 10680 10683 10689 10693 10696 10700 10702 10707 10716 10721 10722 10724 10728 10736 10741 10743 10750 10756 10762 10771 10777 10778 10784 10792 10796 10801 10807 10811 10817 10824 10832 10838 10843 10848 10851 10854 10858 10863 10870 10876 10880 10883 10888 10895 10898 10899 10904 10908 10909 10910 10913 10919 10926 10930 10932 10940 10945 10947 10950 10953 10955 10959 10964 10967 10967 10967 10971 10975 10978 10981 10985 10988 10990 10994 10998
10659 10658 10656 10656 10655 10655 10656 10657 10657 10660 10661 10662 10665 10668 10671 10676 10680 10684 10687 10688 10694 10705 10710 10708 10711 10718 10723 10727 10730 10736 10743 10750 10760 10766 10764 10770 10780 10783 10789 10796 10801 10806 10813 10821 10827 10832 10837 10841 10845 10852 10859 10865 10869 10872 10876 10882 10887 10889 10892 10898 10902 10903 10905 10909 10916 10923 10927 10932 10938 10941 10943 10947 10949 10950 10955 10960 10963 10962 10961 10965 10970 10972 10976 10980 10983 10986 10990 10994
10651 10650 10649 10648 10647 10647 10648 10648 10648 10650 10651 10652 10654 10657 10660 10663 10667 10670 10672 10675 10683 10691 10694 10696 10703 10707 10708 10712 10717 10723 10731 10738 10747 10752 10751 10757 10767 10771 10776 10783 10788 10794 10802 10812 10818 10822 10827 10832 10838 10845 10852 10856 10860 10864 10869 10874 10879 10882 10887 10891 10894 10898 10901 10905 10910 10916 10922 10930 10934 10936 10941 10944 10945 10947 10952 10955 10957 10957 10958 10961 10964 10967 10971 10976 10978 10981 10985 10990
10643 10641 10640 10640 10639 10640 10640 10640 10640 10641 10642 10643 10645 10647 10649 10651 10654 10657 10660 10665 10670 10675 10681 10689 10695 10695 10693 10695 10702 10710 10718 10725 10733 10737 10739 10746 10755 10758 10762 10768 10774 10782 10792 10801 10807 10811 10817 10823 10830 10837 10842 10844 10849 10855 10860 10867 10872 10875 10878 10881 10886 10893 10896 10899 10905 10910 10918 10927 10928 10930 10935 10938 10941 10945 10949 10950 10951 10954 10955 10956 10959 10963 10967 10971 10974 10977 10981 10985
10634 10632 10631 10631 10631 10631 10632 10632 10632 10633 10634 10635 10636 10637 10639 10641 10643 10645 10649 10654 10659 10666 10673 10677 10679 10679 10678 10679 10688 10701 10709 10713 10719 10723 10727 10735 10741 10743 10746 10751 10760 10771 10781 10789 10796 10803 10809 10817 10823 10829 10834 10837 10840 10845 10850 10857 10861 10864 10869 10875 10881 10887 10890 10895 10902 10906 10914 10922 10923 10923 10927 10933 10937 10939 10943 10946 10947 10950 10951 10951 10955 10959 10962 10967 10970 10973 10977 10981
10625 10623 10622 10622 10622 10623 10623 10623 10624 10625 10626 10627 10628 10629 10631 10632 10634 10636 10641 10647 10653 10656 10657 10658 10659 10663 10666 10667 10676 10692 10697 10696 10701 10709 10716 10722 10725 10725 10727 10735 10748 10762 10770 10776 10785 10794 10801 10808 10814 10819 10824 10827 10829 10834 10842 10848 10850 10853 10862 10869 10873 10878 10882 10889 10896 10901 10908 10915 10917 10917 10920 10928 10933 10933 10937 10942 10944 10947 10947 10947 10951 10954 10957 10963 10967 10969 10974 10978
10616 10615 10614 10613 10613 10614 10614 10615 10615 10616 10617 10618 10619 10621 10623 10624 10626 10630 10635 10641 10641 10638 10638 10642 10645 10650 10655 10658 10665 10678 10681 10679 10687 10699 10704 10708 10708 10706 10711 10724 10740 10752 10757 10763 10773 10783 10789 10796 10800 10804 10810 10815 10819 10824 10832 10837 10841 10847 10855 10859 10862 10867 10872 10881 10889 10894 10899 10906 10910 10911 10915 10924 10929 10929 10932 10937 10940 10944 10945 10944 10946 10950 10953 10958 10963 10967 10971 10975
10609 10607 10605 10605 10604 10605 10605 10606 10607 10608 10609 10610 10611 10613 10615 10617 10620 10622 10627 10629 10626 10625 10629 10632 10636 10641 10644 10648 10655 10662 10664 10667 10679 10688 10689 10691 10690 10689 10698 10714 10729 10740 10745 10752 10761 10769 10777 10782 10787 10794 10802 10809 10814 10817 10822 10828 10834 10840 10846 10850 10853 10859 10865 10873 10882 10886 10890 10897 10904 10906 10911 10918 10922 10923 10926 10931 10936 10940 10942 10942 10943 10946 10950 10955 10959 10963 10966 10969
10602 10600 10597 10597 10596 10596 10597 10597 10598 10599 10600 10602 10603 10605 10607 10610 10613 10614 10616 10619 10617 10619 10623 10625 10629 10632 10633 10639 10646 10649 10649 10656 10669 10673 10671 10672 10672 10676 10689 10705 10721 10731 10735 10739 10745 10753 10763 10769 10774 10782 10790 10797 10801 10804 10811 10821 10827 10831 10836 10841 10846 10852 10858 10866 10875 10879 10882 10890 10898 10902 10907 10912 10915 10918 10922 10926 10931 10936 10940 10941 10940 10941 10946 10951 10956 10958 10959 10963
10596 10593 10591 10590 10590 10589 10589 10589 10590 10591 10592 10594 10596 10598 10601 10603 10605 10604 10606 10611 10611 10612 10616 10619 10623 10624 10625 10631 10635 10636 10638 10645 10656 10657 10654 10654 10656 10666 10683 10698 10711 10720 10722 10725 10729 10739 10752 10756 10759 10768 10776 10783 10789 10795 10803 10813 10820 10824 10828 10833 10839 10844 10849 10857 10865 10871 10875 10883 10890 10894 10900 10905 10909 10914 10917 10921 10925 10930 10936 10939 10937 10937 10941 10947 10951 10952 10954 10958
10589 10587 10585 10584 10584 10583 10583 10583 10584 10584 10586 10587 10588 10591 10593 10593 10595 10596 10600 10604 10603 10604 10609 10613 10615 10614 10615 10620 10624 10627 10630 10635 10643 10643 10639 10640 10645 10658 10675 10687 10699 10705 10705 10708 10713 10724 10737 10741 10744 10754 10764 10773 10782 10790 10797 10805 10812 10814 10816 10823 10830 10835 10840 10847 10857 10864 10869 10874 10881 10888 10894 10899 10903 10908 10912 10915 10919 10924 10930 10934 10935 10934 10937 10942 10946 10948 10950 10954
10582 10581 10579 10578 10578 10578 10577 10577 10577 10578 10579 10581 10581 10584 10585 10585 10588 10590 10593 10595 10595 10597 10601 10604 10605 10604 10607 10613 10616 10618 10622 10626 10632 10632 10629 10633 10638 10649 10662 10673 10683 10689 10688 10691 10698 10708 10719 10726 10732 10740 10751 10762 10772 10781 10785 10789 10795 10797 10800 10811 10820 10824 10830 10839 10849 10856 10861 10865 10873 10882 10888 10893 10898 10902 10906 10910 10912 10917 10922 10929 10933 10933 10932 10935 10939 10943 10946 10948
10577 10575 10574 10573 10573 10572 10572 10572 10572 10572 10573 10574 10575 10577 10578 10579 10581 10583 10585 10588 10589 10590 10592 10594 10597 10599 10602 10604 10605 10610 10616 10620 10622 10621 10620 10623 10629 10637 10647 10658 10669 10674 10676 10679 10685 10695 10707 10719 10724 10727 10736 10750 10760 10766 10768 10770 10778 10783 10787 10798 10807 10812 10821 10830 10839 10849 10856 10860 10866 10875 10881 10886 10892 10896 10899 10903 10906 10909 10914 10922 10928 10928 10927 10930 10934 10938 10941 10944
10572 10570 10569 10568 10567 10567 10567 10567 10567 10567 10568 10569 10570 10571 10572 10573 10575 10576 10579 10581 10582 10583 10585 10587 10590 10593 10593 10594 10596 10604 10609 10610 10610 10610 10609 10613 10621 10628 10636 10646 10656 10662 10664 10666 10672 10683 10694 10707 10713 10712 10719 10735 10745 10752 10756 10761 10770 10778 10783 10789 10795 10802 10808 10816 10827 10839 10848 10853 10859 10867 10874 10880 10885 10887 10890 10895 10899 10902 10907 10915 10922 10923 10923 10926 10929 10933 10937 10940
10568 10565 10564 10563 10563 10563 10563 10562 10562 10563 10563 10564 10565 10566 10567 10568 10569 10571 10572 10574 10575 10577 10578 10579 10582 10585 10586 10586 10589 10595 10599 10599 10600 10600 10599 10605 10615 10622 10628 10634 10641 10647 10650 10651 10658 10668 10675 10686 10696 10696 10701 10719 10733 10739 10745 10751 10759 10770 10775 10777 10784 10792 10794 10799 10812 10824 10834 10843 10848 10857 10866 10873 10878 10880 10884 10889 10893 10897 10901 10908 10915 10918 10920 10923 10924 10928 10932 10935
10564 10561 10559 10559 10558 10558 10558 10558 10558 10559 10559 10560 10561 10561 10562 10563 10564 10565 10566 10568 10569 10571 10572 10573 10575 10578 10579 10579 10581 10586 10588 10590 10592 10591 10592 10599 10607 10614 10619 10622 10626 10634 10638 10640 10645 10652 10658 10669 10683 10688 10691 10705 10720 10726 10731 10736 10742 10751 10757 10759 10766 10775 10780 10788 10802 10814 10824 10832 10836 10845 10857 10865 10869 10872 10875 10880 10885 10890 10894 10900 10908 10913 10916 10918 10919 10923 10929 10932
10561 10558 10556 10555 10555 10554 10554 10554 10555 10555 10555 10556 10556 10557 10558 10559 10560 10560 10561 10562 10563 10565 10566 10567 10568 10571 10573 10572 10574 10577 10578 10580 10582 10582 10585 10592 10598 10603 10608 10611 10615 10621 10627 10629 10631 10637 10644 10656 10672 10681 10683 10691 10704 10710 10714 10717 10721 10731 10741 10746 10752 10764 10777 10789 10801 10811 10820 10826 10830 10839 10851 10856 10858 10860 10864 10869 10875 10881 10885 10892 10900 10907 10911 10914 10915 10919 10925 10929
10558 10555 10553 10552 10551 10550 10550 10550 10551 10551 10552 10552 10552 10553 10554 10555 10555 10556 10556 10557 10558 10559 10561 10561 10562 10564 10566 10566 10567 10569 10570 10572 10573 10573 10576 10584 10588 10591 10596 10600 10604 10610 10614 10615 10617 10624 10632 10642 10657 10667 10670 10676 10686 10693 10698 10705 10712 10722 10734 10740 10745 10757 10772 10785 10797 10808 10817 10823 10827 10835 10845 10847 10845 10849 10855 10860 10866 10872 10877 10883 10893 10902 10908 10910 10913 10917 10922 10927
10555 10552 10550 10548 10548 10547 10547 10547 10547 10547 10548 10549 10549 10549 10550 10551 10551 10552 10552 10552 10553 10554 10555 10555 10556 10558 10559 10560 10560 10561 10563 10564 10565 10566 10568 10574 10578 10581 10585 10589 10593 10600 10604 10603 10604 10611 10618 10627 10640 10651 10658 10664 10669 10676 10688 10698 10706 10714 10723 10731 10735 10745 10761 10775 10787 10798 10809 10817 10823 10829 10836 10837 10835 10840 10848 10854 10861 10867 10874 10883 10894 10901 10906 10910 10914 10918 10920 10923
10553 10550 10547 10546 10545 10544 10544 10543 10543 10544 10544 10545 10545 10546 10546 10547 10547 10547 10548 10548 10548 10549 10550 10550 10550 10552 10553 10553 10554 10554 10555 10556 10558 10559 10561 10565 10569 10572 10575 10579 10583 10589 10592 10591 10594 10598 10604 10614 10625 10636 10648 10652 10653 10660 10673 10685 10694 10702 10712 10721 10726 10735 10752 10766 10774 10785 10798 10810 10818 10822 10824 10826 10829 10835 10843 10849 10856 10863 10873 10884 10890 10896 10903 10910 10914 10916 10916 10919
10550 10548 10545 10543 10542 10541 10541 10540 10540 10540 10540 10541 10542 10542 10543 10543 10543 10544 10544 10544 10544 10544 10545 10545 10544 10545 10546 10546 10547 10547 10548 10549 10551 10553 10554 10557 10560 10563 10566 10569 10573 10577 10579 10581 10584 10587 10594 10605 10614 10624 10636 10640 10640 10646 10658 10671 10683 10690 10699 10709 10717 10727 10744 10757 10767 10778 10790 10802 10811 10813 10813 10819 10825 10830 10837 10845 10851 10859 10869 10877 10882 10890 10901 10907 10909 10911 10914 10919
10547 10545 10543 10541 10539 10538 10538 10538 10537 10537 10537 10537 10538 10538 10539 10539 10539 10540 10539 10539 10539 10539 10539 10539 10539 10539 10539 10539 10540 10541 10541 10542 10544 10546 10548 10550 10553 10555 10556 10558 10562 10566 10567 10569 10573 10578 10586 10595 10601 10611 10623 10629 10630 10634 10645 10660 10672 10679 10688 10699 10710 10723 10737 10749 10759 10770 10780 10791 10798 10798 10800 10811 10819 10822 10829 10838 10844 10853 10863 10870 10876 10886 10896 10902 10906 10910 10912 10917
10546 10542 10540 10539 10537 10536 10535 10534 10534 10534 10534 10534 10535 10535 10535 10535 10535 10535 10535 10535 10535 10534 10534 10534 10533 10533 10533 10533 10534 10535 10536 10536 10537 10539 10541 10542 10544 10545 10545 10546 10549 10553 10555 10558 10563 10569 10577 10583 10587 10598 10610 10618 10621 10624 10632 10647 10661 10673 10683 10693 10704 10716 10725 10735 10747 10759 10770 10776 10778 10779 10785 10798 10808 10812 10819 10829 10836 10846 10857 10862 10869 10879 10888 10895 10900 10903 10907 10911
10545 10541 10538 10536 10535 10533 10533 10532 10531 10531 10531 10531 10531 10532 10532 10532 10531 10531 10531 10530 10530 10529 10528 10528 10527 10527 10527 10527 10528 10529 10530 10530 10530 10532 10533 10533 10534 10534 10534 10534 10537 10542 10545 10548 10552 10558 10566 10571 10575 10584 10596 10605 10609 10611 10618 10632 10648 10662 10673 10682 10693 10701 10707 10720 10736 10749 10757 10759 10761 10765 10770 10782 10796 10802 10810 10821 10828 10839 10849 10854 10862 10872 10878 10885 10890 10893 10898 10904
10544 10540 10537 10535 10533 10531 10530 10530 10529 10528 10528 10528 10528 10528 10528 10528 10527 10527 10527 10526 10525 10524 10523 10523 10522 10521 10521 10522 10522 10522 10523 10523 10523 10523 10524 10524 10524 10524 10525 10525 10527 10531 10535 10538 10542 10547 10553 10560 10564 10571 10583 10592 10595 10597 10604 10615 10631 10649 10661 10669 10679 10686 10692 10707 10723 10734 10741 10746 10749 10750 10752 10768 10787 10795 10803 10815 10822 10829 10839 10845 10853 10863 10869 10876 10881 10884 10890 10898